Theta_e
287 286 286 285 285 285 284 284 284 284 285 285 285 285 285 284 285 284 284 284 284 284 284 284 284 284 284 284 284 284 284 285 285 286 288 287 286 286 287 287 288 287 288
287 286 284 284 284 283 283 283 283 282 283 283 283 283 283 283 283 283 283 283 282 282 282 282 282 284 282 282 282 281 282 283 283 281 284 285 285 284 284 284 286 288 286
285 284 283 282 282 281 281 281 281 281 281 281 281 281 281 281 281 283 283 283 282 282 282 281 281 281 280 281 280 280 281 282 282 281 281 283 283 281 282 282 282 283 286
284 282 281 280 280 280 280 280 280 280 279 279 280 279 280 280 282 283 283 282 281 281 281 281 280 280 280 281 281 281 282 281 281 281 281 281 281 281 279 279 280 280 281
281 280 279 280 279 279 279 279 279 279 278 279 279 279 279 280 282 282 282 281 280 279 280 280 280 281 283 283 281 281 281 280 281 280 280 280 281 280 279 279 279 279 279
279 278 278 279 279 278 278 278 277 277 277 278 278 278 277 279 284 284 283 280 279 279 278 279 279 279 281 283 283 284 283 280 279 279 280 279 280 281 279 278 278 273 274
279 278 277 277 277 277 277 277 276 276 276 276 276 277 277 277 282 283 283 279 279 278 278 278 278 280 279 279 282 283 282 283 283 281 279 279 279 280 280 277 276 276 276
277 277 276 276 276 276 275 275 275 275 275 275 275 276 276 277 281 282 282 279 278 278 278 278 278 278 279 280 280 279 279 280 279 280 280 280 280 280 279 278 277 277 275
276 275 274 274 274 274 274 273 274 274 274 274 275 275 275 275 279 281 280 278 278 277 278 278 277 277 279 281 278 277 277 278 282 284 284 284 285 285 286 277 274 275 273
274 273 273 273 273 272 272 272 273 273 274 274 274 274 274 274 277 280 280 278 276 277 277 277 278 277 280 280 276 275 274 275 277 280 278 279 281 280 280 275 274 271 272
272 271 271 271 271 272 271 271 271 271 271 270 271 272 273 274 274 278 280 277 276 276 275 274 275 278 278 278 278 274 274 277 277 275 274 275 273 271 272 272 271 271 270
268 268 267 266 269 270 266 268 268 268 267 267 267 269 271 272 275 276 278 279 279 275 274 274 275 277 276 276 274 276 277 275 271 271 271 272 272 271 269 269 269 270 270
264 262 263 265 268 268 265 266 265 265 264 266 268 268 269 271 271 275 276 278 277 276 275 276 275 274 273 271 273 274 270 269 268 268 269 271 270 269 268 267 267 267 266
260 262 264 264 265 265 268 268 265 263 264 267 267 267 268 269 269 271 273 273 275 274 274 269 270 269 270 270 266 268 268 268 268 268 268 268 268 267 266 267 265 265 261
263 264 263 264 262 264 266 265 267 268 268 264 263 265 265 267 270 275 275 273 273 273 268 263 261 262 262 263 264 265 266 267 266 267 267 266 267 266 266 266 265 263 258
263 263 262 263 261 263 262 261 268 271 272 273 274 272 270 273 275 275 275 276 274 272 258 256 258 259 260 261 261 263 264 265 266 266 266 266 266 265 265 264 264 261 259
260 261 260 261 259 258 258 258 258 262 268 270 271 271 272 272 273 274 274 273 269 265 251 256 256 257 258 259 261 262 262 264 265 265 265 265 264 263 262 261 262 262 260
255 258 256 256 255 254 255 255 254 253 256 259 263 267 269 270 271 272 271 265 257 257 248 250 255 257 257 258 260 261 261 262 263 263 263 263 262 262 260 260 261 259 258
255 254 253 252 252 254 255 255 253 252 253 254 255 261 261 267 268 268 266 250 251 254 255 255 255 256 257 257 259 260 260 261 262 261 261 261 261 260 259 260 260 261 260
252 255 253 252 252 257 258 258 256 253 251 252 252 252 253 255 253 252 249 247 250 252 254 254 256 257 257 257 258 259 259 260 260 260 260 259 260 259 260 259 259 259 259
253 250 256 257 257 258 257 257 257 254 253 252 253 252 266 256 249 249 251 252 250 252 253 254 255 256 257 257 257 258 257 258 259 259 259 259 258 258 259 259 259 259 258
256 256 256 259 259 258 257 255 254 252 252 250 251 249 262 247 249 249 250 250 250 249 251 253 254 255 256 256 257 257 257 256 257 258 258 258 258 258 258 258 258 257 257
258 258 258 258 258 257 256 254 253 252 249 248 248 249 247 248 248 249 250 250 249 251 252 251 253 254 255 256 257 257 256 256 257 258 258 258 257 257 257 256 257 256 256
260 261 261 260 258 257 256 254 252 252 250 248 247 248 248 249 249 250 250 250 249 251 253 252 252 252 254 255 256 256 256 257 258 258 257 257 257 257 256 256 256 256 256
260 260 259 259 258 257 256 254 253 252 249 248 249 246 249 249 249 249 249 249 251 252 252 253 251 252 252 252 253 252 253 256 258 259 256 256 256 256 256 256 256 256 256
259 259 259 258 256 255 252 252 252 250 249 250 250 250 250 251 250 250 251 251 252 252 252 253 253 251 250 252 252 254 257 261 261 261 255 255 255 255 255 255 255 255 255
Wind_Speed
6 6 6 6 6 6 6 6 6 6 7 7 7 7 7 7 8 7 7 7 8 8 7 8 8 7 5 6 4 4 4 5 12 16 7 5 4 6 5 5 7 7 6
5 6 6 6 6 6 6 6 5 6 5 6 6 6 7 8 7 7 8 8 9 10 10 10 10 8 9 6 5 7 6 6 8 19 13 11 8 4 5 7 7 6 5
5 5 6 6 5 6 6 6 6 7 7 7 8 8 8 8 6 8 8 9 9 9 9 9 10 9 9 8 8 7 6 6 7 11 15 10 8 3 6 5 5 6 5
5 5 6 6 5 5 5 6 7 7 8 7 7 7 7 7 6 8 7 6 6 7 7 7 8 9 12 13 11 12 11 11 11 11 12 12 9 5 3 6 8 3 4
5 6 5 4 5 5 6 6 6 6 6 6 7 7 7 5 6 9 7 8 9 9 6 8 7 8 14 16 11 13 14 10 9 10 13 14 13 10 8 5 8 7 4
5 5 4 5 5 5 5 5 5 6 6 5 5 5 7 6 17 19 15 7 8 8 8 9 9 9 12 20 21 23 20 13 14 11 11 13 15 11 6 6 6 3 5
5 4 4 4 4 6 6 6 5 5 4 5 6 7 8 7 17 18 18 6 7 7 9 10 10 8 10 12 17 22 19 20 21 16 15 14 15 12 5 6 9 8 9
4 4 4 5 5 4 4 4 4 3 5 6 6 7 7 7 16 17 18 7 6 8 9 10 11 13 13 17 18 16 16 14 12 10 11 14 14 13 10 9 8 7 4
4 4 4 3 3 3 4 5 4 5 5 5 6 6 7 7 16 18 15 8 9 10 10 11 12 14 23 29 20 20 21 18 17 22 24 25 29 30 16 2 4 6 7
3 2 2 2 2 3 4 4 3 4 6 5 6 4 6 7 14 18 16 8 9 8 9 11 17 20 28 31 20 17 19 20 19 16 12 15 16 13 6 4 2 4 3
2 1 1 2 3 3 3 3 4 3 4 4 4 4 4 6 9 17 19 9 9 9 9 9 9 25 30 30 29 15 18 24 23 14 13 12 7 4 3 2 2 3 2
2 1 3 3 3 3 2 3 3 3 3 4 4 4 3 4 12 14 19 19 21 11 10 10 12 30 31 30 22 29 30 23 11 12 12 11 9 6 2 1 2 1 3
3 3 2 3 2 2 2 2 1 2 2 3 3 3 6 6 6 16 17 22 21 13 9 19 27 29 28 20 25 27 20 11 11 11 10 10 4 3 2 1 1 3 2
2 2 3 2 2 2 2 1 1 2 1 2 2 4 4 5 6 7 7 8 13 10 16 9 18 20 19 18 13 13 10 10 11 10 9 7 4 3 3 2 2 2 2
4 4 3 1 0 1 2 3 2 3 2 2 2 2 4 7 7 16 16 11 10 14 13 7 8 9 9 10 10 11 10 11 10 10 9 8 5 3 2 2 3 2 1
4 3 2 2 1 2 1 3 6 4 8 7 8 7 4 13 18 20 22 21 23 23 4 6 8 8 9 11 11 12 11 12 10 10 8 7 5 5 4 2 1 1 2
5 4 3 2 2 1 1 2 4 4 7 6 8 12 13 15 18 20 20 23 18 13 1 6 7 7 9 10 10 10 11 11 12 8 8 7 6 4 4 2 3 3 2
4 4 3 3 2 2 1 1 0 1 4 4 5 11 12 17 19 18 23 15 8 7 2 4 7 8 8 9 10 10 10 10 9 9 8 7 6 5 3 3 3 2 1
5 3 3 3 2 2 1 2 2 1 2 4 5 7 6 17 15 17 16 2 5 8 7 7 6 7 8 9 10 9 10 10 10 8 7 7 6 4 4 3 3 3 1
3 4 4 3 2 2 2 2 1 1 2 3 4 3 5 4 3 4 2 3 4 5 6 7 7 7 8 9 9 9 9 9 9 8 7 6 6 5 5 3 3 2 1
3 3 5 3 3 3 2 2 2 2 3 4 4 3 15 3 4 4 6 5 5 6 6 6 7 8 8 8 9 8 9 9 8 8 7 7 6 6 4 4 3 2 2
4 4 3 3 3 3 2 2 2 3 3 3 4 4 15 2 3 5 5 6 5 5 4 6 7 7 8 8 9 9 9 9 8 8 8 7 6 4 3 3 2 1 1
5 4 4 3 2 2 2 2 3 3 3 4 4 4 4 4 5 6 7 6 5 5 5 4 6 8 7 7 7 8 8 8 8 8 7 6 5 4 2 2 1 1 1
5 5 4 3 2 2 2 3 3 4 4 4 4 4 4 5 6 7 7 5 4 5 6 6 6 8 8 8 7 7 7 8 8 6 7 5 5 4 2 1 0 1 3
4 3 3 3 3 3 3 3 3 3 4 4 4 3 5 6 7 6 6 4 5 6 8 7 5 8 10 10 11 11 10 13 11 9 3 4 4 3 1 0 0 1 3
4 4 3 3 2 2 2 3 3 3 4 4 4 5 6 7 7 6 6 6 6 7 8 8 9 11 11 9 10 12 13 13 12 9 3 2 2 1 1 1 2 2 3
Wind_Direction
76 71 65 51 41 39 40 25 17 3 6 8 2 358 0 358 358 2 357 0 352 345 346 342 331 324 326 322 309 284 269 252 272 289 291 303 290 289 297 295 290 289 283
80 75 65 52 39 37 31 18 12 8 5 0 1 8 8 2 359 8 3 358 355 351 347 344 340 342 333 329 320 302 290 279 277 288 300 299 294 285 272 279 276 278 276
81 71 57 51 44 36 25 14 13 7 9 11 15 14 5 358 358 3 4 360 357 349 342 337 331 332 333 328 324 312 299 294 284 284 296 300 299 289 297 281 270 275 268
70 66 56 37 32 25 20 20 17 12 14 7 8 5 0 351 357 1 355 352 344 345 333 330 326 338 334 334 330 325 323 316 310 302 297 301 301 299 283 299 304 278 280
81 66 53 42 36 27 23 17 12 15 11 0 2 2 357 357 353 357 354 355 346 338 323 323 319 307 318 330 324 327 323 314 306 302 301 303 306 305 303 301 293 300 285
78 69 46 36 35 28 19 12 14 12 4 357 354 350 349 359 359 1 0 349 336 334 332 332 327 318 321 326 323 319 316 316 309 301 298 300 299 301 288 288 294 310 306
78 59 49 34 37 27 14 12 4 353 340 352 355 354 354 349 0 357 351 342 326 320 332 327 329 330 324 318 317 317 307 297 298 297 296 292 295 294 283 285 282 272 269
78 57 38 31 28 16 9 359 350 343 358 357 345 346 350 354 352 351 353 334 330 335 331 330 332 331 326 328 325 318 312 301 285 272 265 282 278 275 260 259 267 271 276
59 45 33 21 11 359 8 350 354 355 347 351 352 348 341 331 348 353 356 345 340 336 338 338 332 328 329 333 331 322 314 309 306 289 287 299 301 301 260 212 255 269 285
73 46 13 358 7 12 355 345 359 352 339 338 332 330 330 328 346 353 354 347 330 330 338 332 333 332 329 333 326 320 313 311 311 304 310 303 300 291 264 253 246 236 272
84 4 2 14 357 11 4 355 336 330 329 313 313 311 308 338 340 351 349 342 332 337 329 328 327 324 332 328 329 322 312 313 315 316 309 302 289 256 246 256 288 287 239
142 125 30 10 355 21 3 303 322 341 319 310 307 317 329 329 344 343 346 340 339 329 329 324 318 331 328 330 332 326 327 333 317 311 306 301 294 278 248 296 335 335 328
85 45 20 345 320 291 254 292 313 313 324 320 331 326 331 339 329 332 329 337 334 328 326 328 334 329 329 328 328 331 337 324 321 314 310 314 328 335 39 23 12 350 339
122 202 212 202 290 316 341 336 289 277 279 306 311 331 319 321 321 310 326 322 316 334 335 345 329 326 324 323 323 327 326 325 320 316 316 315 314 326 332 350 331 348 339
194 205 199 165 265 303 293 235 254 257 242 268 271 263 327 326 315 329 329 323 329 334 348 338 325 328 328 330 331 330 329 328 329 327 322 322 320 323 335 350 339 340 321
192 184 178 187 212 219 265 303 334 332 337 328 333 339 317 317 325 326 326 335 341 336 21 325 322 328 330 331 328 325 328 328 327 322 321 323 326 333 331 335 306 285 287
192 182 180 190 198 217 346 9 346 336 334 338 336 335 328 332 330 331 337 341 344 354 335 320 314 320 324 326 317 321 321 324 322 323 324 326 328 326 333 316 298 282 287
185 181 177 183 185 182 199 256 325 337 323 312 311 324 341 339 337 339 343 351 342 352 296 290 310 321 322 314 312 316 317 320 323 325 325 324 325 321 318 308 301 281 302
176 187 185 179 183 196 208 229 219 259 278 286 316 329 344 337 331 344 352 33 323 320 320 318 316 316 308 306 306 310 314 315 318 322 323 323 323 317 308 301 298 292 312
172 166 157 161 167 195 212 229 267 276 294 284 292 278 315 304 346 328 320 301 301 291 296 306 315 307 302 303 305 311 314 315 319 321 320 317 319 316 315 311 309 307 319
154 160 174 175 200 211 226 256 280 278 269 275 281 285 306 21 312 305 304 295 276 283 297 310 310 306 303 304 305 310 310 311 313 316 318 317 318 320 320 328 334 346 85
161 169 177 199 195 209 208 204 240 255 262 277 285 287 326 336 295 280 277 275 264 250 272 287 295 296 299 302 306 307 305 308 310 314 316 315 315 315 316 330 343 30 80
172 174 185 199 205 210 234 202 232 249 265 267 275 290 299 291 282 280 278 274 270 292 287 267 281 292 293 292 296 296 298 299 300 300 307 311 313 312 313 318 334 60 66
175 181 186 192 196 215 236 249 246 259 262 271 275 276 277 276 274 275 273 272 280 282 278 276 272 277 290 294 293 288 284 287 285 292 299 302 304 312 312 330 321 105 107
160 166 185 196 206 217 234 247 262 272 275 266 282 270 273 271 272 266 267 272 282 283 285 283 272 277 285 288 290 288 284 290 285 275 277 290 294 293 297 277 140 110 116
168 178 192 190 208 212 216 244 265 267 274 281 277 271 273 276 269 271 285 284 282 280 281 283 278 277 283 287 282 284 290 298 292 261 208 245 259 265 234 163 143 131 129